"read_dt","SO2 (ppb)","flags","PMT voltage (V)","lamp voltage (V)","lamp intensity (Hz)","internal temp (C)","react chamber temp (C)","sample flow (l/min)","pres (mmHg)","SO2 bkg (ppb)","SO2 coefficient"
2016-08-22 00:00:00,2189E-3,5C000400,-0723,0825,12189,029.7,045.5,0.252,750.5,01.17,0.508
2016-08-22 00:01:00,2193E-3,5C000400,-0723,0826,12272,029.7,045.5,0.252,750.5,01.17,0.508
2016-08-22 00:02:00,2240E-3,5C000400,-0723,0826,12103,029.7,045.5,0.252,750.5,01.17,0.508
2016-08-22 00:03:00,2263E-3,5C000400,-0723,0825,12304,029.7,045.5,0.252,750.5,01.17,0.508
2016-08-22 00:04:00,2208E-3,5C000400,-0723,0825,12283,029.7,045.5,0.252,750.5,01.17,0.508
2016-08-22 00:05:00,2272E-3,5C000400,-0723,0825,12200,029.6,045.5,0.252,750.5,01.17,0.508
2016-08-22 00:06:00,2210E-3,5C000400,-0723,0825,12129,029.6,045.5,0.252,750.5,01.17,0.508
2016-08-22 00:07:00,2229E-3,5C000400,-0723,0825,12006,029.6,045.5,0.251,750.5,01.17,0.508
2016-08-22 00:08:00,2272E-3,5C000400,-0723,0825,12202,029.7,045.5,0.252,750.5,01.17,0.508
2016-08-22 00:09:00,2321E-3,5C000400,-0723,0826,12356,029.7,045.5,0.252,750.5,01.17,0.508
2016-08-22 00:10:00,2273E-3,5C000400,-0723,0825,12191,029.7,045.5,0.252,750.5,01.17,0.508
2016-08-22 00:11:00,2200E-3,5C000400,-0723,0826,12263,029.7,045.5,0.252,750.5,01.17,0.508
2016-08-22 00:12:00,2078E-3,5C000400,-0723,0825,12121,029.7,045.5,0.251,750.5,01.17,0.508
2016-08-22 00:13:00,2357E-3,5C000400,-0723,0825,12260,029.8,045.5,0.252,750.5,01.17,0.508
2016-08-22 00:14:00,2346E-3,5C000400,-0723,0825,12205,029.7,045.5,0.252,750.5,01.17,0.508
2016-08-22 00:15:00,2218E-3,5C000400,-0723,0825,12146,029.7,045.5,0.252,750.6,01.17,0.508
2016-08-22 00:16:00,2255E-3,5C000400,-0723,0825,12331,029.7,045.5,0.252,750.5,01.17,0.508
2016-08-22 00:17:00,2247E-3,5C000400,-0723,0825,12224,029.7,045.5,0.252,750.5,01.17,0.508
2016-08-22 00:18:00,2275E-3,5C000400,-0723,0825,12161,029.7,045.5,0.252,750.6,01.17,0.508
2016-08-22 00:19:00,2212E-3,5C000400,-0723,0825,12023,029.7,045.5,0.251,750.5,01.17,0.508
2016-08-22 00:20:00,2063E-3,5C000400,-0723,0826,12066,029.7,045.5,0.252,750.6,01.17,0.508
2016-08-22 00:21:00,2233E-3,5C000400,-0723,0825,12252,029.7,045.5,0.251,750.6,01.17,0.508
2016-08-22 00:22:00,2226E-3,5C000400,-0723,0825,12326,029.7,045.5,0.252,750.6,01.17,0.508
2016-08-22 00:23:00,2171E-3,5C000400,-0723,0825,12203,029.7,045.5,0.252,750.6,01.17,0.508
2016-08-22 00:24:00,2266E-3,5C000400,-0723,0825,12238,029.7,045.5,0.252,750.6,01.17,0.508
2016-08-22 00:25:00,2103E-3,5C000400,-0723,0825,12319,029.7,045.5,0.252,750.6,01.17,0.508
2016-08-22 00:26:00,2212E-3,5C000400,-0723,0825,12239,029.8,045.5,0.251,750.6,01.17,0.508
2016-08-22 00:27:00,2273E-3,5C000400,-0723,0825,12240,029.7,045.5,0.252,750.6,01.17,0.508
2016-08-22 00:28:00,2255E-3,5C000400,-0723,0826,12172,029.8,045.5,0.252,750.6,01.17,0.508
2016-08-22 00:29:00,2231E-3,5C000400,-0723,0825,12266,029.7,045.5,0.252,750.6,01.17,0.508
2016-08-22 00:30:00,2246E-3,5C000400,-0723,0825,12344,029.7,045.5,0.252,750.7,01.17,0.508
2016-08-22 00:31:00,2178E-3,5C000400,-0723,0825,12305,029.7,045.5,0.251,750.7,01.17,0.508
2016-08-22 00:32:00,2152E-3,5C000400,-0723,0825,12333,029.7,045.5,0.252,750.7,01.17,0.508
2016-08-22 00:33:00,2220E-3,5C000400,-0723,0826,12196,029.7,045.5,0.251,750.7,01.17,0.508
2016-08-22 00:34:00,2309E-3,5C000400,-0723,0825,12251,029.7,045.5,0.252,750.7,01.17,0.508
2016-08-22 00:35:00,2230E-3,5C000400,-0723,0825,12207,029.7,045.5,0.251,750.7,01.17,0.508
2016-08-22 00:36:00,2362E-3,5C000400,-0723,0825,12288,029.8,045.5,0.252,750.6,01.17,0.508
2016-08-22 00:37:00,2210E-3,5C000400,-0723,0825,12230,029.8,045.5,0.252,750.7,01.17,0.508
2016-08-22 00:38:00,2376E-3,5C000400,-0723,0825,11972,029.8,045.5,0.252,750.7,01.17,0.508
2016-08-22 00:39:00,2243E-3,5C000400,-0723,0826,12193,029.8,045.5,0.252,750.7,01.17,0.508
2016-08-22 00:40:00,2231E-3,5C000400,-0723,0825,12211,029.8,045.5,0.251,750.6,01.17,0.508
2016-08-22 00:41:00,2286E-3,5C000400,-0723,0825,12080,029.8,045.5,0.252,750.7,01.17,0.508
2016-08-22 00:42:00,2257E-3,5C000400,-0723,0825,12217,029.8,045.5,0.251,750.7,01.17,0.508
2016-08-22 00:43:00,2279E-3,5C000400,-0723,0826,12047,029.7,045.5,0.252,750.6,01.17,0.508
2016-08-22 00:44:00,2240E-3,5C000400,-0723,0825,12329,029.7,045.5,0.251,750.6,01.17,0.508
2016-08-22 00:45:00,2154E-3,5C000400,-0723,0824,12217,029.8,045.5,0.252,750.6,01.17,0.508
2016-08-22 00:46:00,2206E-3,5C000400,-0723,0825,12163,029.8,045.5,0.252,750.6,01.17,0.508
2016-08-22 00:47:00,2286E-3,5C000400,-0723,0825,12212,029.8,045.5,0.252,750.6,01.17,0.508
2016-08-22 00:48:00,2104E-3,5C000400,-0723,0825,12152,029.9,045.5,0.252,750.6,01.17,0.508
2016-08-22 00:49:00,2165E-3,5C000400,-0723,0825,12202,029.9,045.5,0.251,750.6,01.17,0.508
2016-08-22 00:50:00,2218E-3,5C000400,-0723,0825,12177,029.9,045.5,0.252,750.6,01.17,0.508
2016-08-22 00:51:00,2075E-3,5C000400,-0723,0826,12287,030.0,045.5,0.251,750.6,01.17,0.508
2016-08-22 00:52:00,2190E-3,5C000400,-0723,0826,12254,030.0,045.5,0.251,750.6,01.17,0.508
2016-08-22 00:53:00,2111E-3,5C000400,-0723,0825,12095,030.0,045.5,0.251,750.6,01.17,0.508
2016-08-22 00:54:00,2311E-3,5C000400,-0723,0825,12174,030.1,045.5,0.251,750.6,01.17,0.508
2016-08-22 00:55:00,2187E-3,5C000400,-0723,0824,12218,030.2,045.5,0.251,750.6,01.17,0.508
2016-08-22 00:56:00,2219E-3,5C000400,-0723,0825,11988,030.3,045.5,0.251,750.6,01.17,0.508
2016-08-22 00:57:00,2187E-3,5C000400,-0723,0825,12124,030.4,045.5,0.251,750.6,01.17,0.508
2016-08-22 00:58:00,2218E-3,5C000400,-0723,0824,12203,030.4,045.5,0.251,750.6,01.17,0.508
2016-08-22 00:59:00,2169E-3,5C000400,-0723,0826,12170,030.5,045.5,0.251,750.6,01.17,0.508
2016-08-22 01:00:00,2254E-3,5C000400,-0723,0826,12324,030.6,045.5,0.251,750.6,01.17,0.508
2016-08-22 01:01:00,2327E-3,5C000400,-0723,0826,12199,030.6,045.5,0.251,750.6,01.17,0.508
2016-08-22 01:02:00,2131E-3,5C000400,-0723,0826,12307,030.7,045.5,0.251,750.6,01.17,0.508
2016-08-22 01:03:00,2242E-3,5C000400,-0723,0825,12204,030.7,045.5,0.250,750.6,01.17,0.508
2016-08-22 01:04:00,2274E-3,5C000400,-0723,0825,12212,030.8,045.5,0.250,750.6,01.17,0.508
2016-08-22 01:05:00,2117E-3,5C000400,-0723,0826,12241,030.9,045.6,0.250,750.6,01.17,0.508
2016-08-22 01:06:00,2253E-3,5C000400,-0723,0825,12153,030.9,045.6,0.250,750.6,01.17,0.508
2016-08-22 01:07:00,2277E-3,5C000400,-0723,0826,12234,031.0,045.5,0.250,750.7,01.17,0.508
2016-08-22 01:08:00,2314E-3,5C000400,-0723,0826,12155,031.1,045.5,0.250,750.6,01.17,0.508
2016-08-22 01:09:00,2175E-3,5C000400,-0723,0826,12276,031.1,045.5,0.250,750.6,01.17,0.508
2016-08-22 01:10:00,2302E-3,5C000400,-0723,0825,12089,031.1,045.6,0.250,750.6,01.17,0.508
2016-08-22 01:11:00,2117E-3,5C000400,-0723,0826,12264,031.2,045.5,0.250,750.6,01.17,0.508
2016-08-22 01:12:00,2380E-3,5C000400,-0723,0825,12075,031.2,045.5,0.249,750.6,01.17,0.508
2016-08-22 01:13:00,2210E-3,5C000400,-0723,0826,12092,031.3,045.5,0.249,750.6,01.17,0.508
2016-08-22 01:14:00,2152E-3,5C000400,-0723,0826,12228,031.4,045.5,0.250,750.6,01.17,0.508
2016-08-22 01:15:00,2169E-3,5C000400,-0723,0826,12290,031.4,045.5,0.249,750.6,01.17,0.508
2016-08-22 01:16:00,2130E-3,5C000400,-0723,0825,12133,031.4,045.5,0.249,750.6,01.17,0.508
2016-08-22 01:17:00,2226E-3,5C000400,-0723,0825,12236,031.5,045.6,0.249,750.5,01.17,0.508
2016-08-22 01:18:00,2268E-3,5C000400,-0723,0826,12186,031.5,045.6,0.249,750.5,01.17,0.508
2016-08-22 01:19:00,2202E-3,5C000400,-0723,0826,12298,031.5,045.6,0.249,750.5,01.17,0.508
2016-08-22 01:20:00,2358E-3,5C000400,-0723,0826,12138,031.5,045.6,0.248,750.5,01.17,0.508
2016-08-22 01:21:00,2263E-3,5C000400,-0723,0825,12275,031.6,045.6,0.249,750.5,01.17,0.508
2016-08-22 01:22:00,2316E-3,5C000400,-0723,0826,12198,031.6,045.6,0.249,750.5,01.17,0.508
2016-08-22 01:23:00,2193E-3,5C000400,-0723,0827,12204,031.6,045.6,0.249,750.5,01.17,0.508
2016-08-22 01:24:00,2240E-3,5C000400,-0723,0825,12202,031.7,045.6,0.248,750.5,01.17,0.508
2016-08-22 01:25:00,2251E-3,5C000400,-0723,0826,12256,031.7,045.6,0.248,750.5,01.17,0.508
2016-08-22 01:26:00,2278E-3,5C000400,-0723,0826,12161,031.8,045.6,0.248,750.5,01.17,0.508
2016-08-22 01:27:00,2081E-3,5C000400,-0723,0826,12195,031.8,045.6,0.248,750.5,01.17,0.508
2016-08-22 01:28:00,2077E-3,5C000400,-0723,0826,12088,031.8,045.6,0.248,750.5,01.17,0.508
2016-08-22 01:29:00,2241E-3,5C000400,-0723,0826,11955,031.8,045.6,0.248,750.5,01.17,0.508
2016-08-22 01:30:00,2242E-3,5C000400,-0723,0825,12095,031.8,045.6,0.248,750.5,01.17,0.508
2016-08-22 01:31:00,2051E-3,5C000400,-0723,0826,12351,031.9,045.6,0.247,750.5,01.17,0.508
2016-08-22 01:32:00,2193E-3,5C000400,-0723,0826,12120,031.9,045.6,0.248,750.5,01.17,0.508
2016-08-22 01:33:00,2271E-3,5C000400,-0723,0826,12218,031.9,045.6,0.248,750.5,01.17,0.508
2016-08-22 01:34:00,2181E-3,5C000400,-0723,0826,12189,031.9,045.6,0.248,750.5,01.17,0.508
2016-08-22 01:35:00,2151E-3,5C000400,-0723,0826,12194,032.0,045.6,0.247,750.5,01.17,0.508
2016-08-22 01:36:00,2142E-3,5C000400,-0723,0826,12292,032.0,045.6,0.248,750.5,01.17,0.508
2016-08-22 01:37:00,2232E-3,5C000400,-0723,0826,12281,032.0,045.6,0.248,750.5,01.17,0.508
2016-08-22 01:38:00,2257E-3,5C000400,-0723,0826,12286,032.0,045.6,0.247,750.5,01.17,0.508
2016-08-22 01:39:00,2174E-3,5C000400,-0723,0826,12182,032.1,045.6,0.247,750.5,01.17,0.508
2016-08-22 01:40:00,2315E-3,5C000400,-0723,0826,12249,032.1,045.6,0.247,750.5,01.17,0.508
2016-08-22 01:41:00,2311E-3,5C000400,-0723,0826,12199,032.1,045.6,0.247,750.5,01.17,0.508
2016-08-22 01:42:00,2245E-3,5C000400,-0723,0826,12084,032.2,045.6,0.247,750.5,01.17,0.508
2016-08-22 01:43:00,2174E-3,5C000400,-0723,0826,12264,032.2,045.6,0.248,750.5,01.17,0.508
2016-08-22 01:44:00,2247E-3,5C000400,-0723,0825,12207,032.2,045.6,0.247,750.5,01.17,0.508
2016-08-22 01:45:00,2187E-3,5C000400,-0723,0826,12272,032.2,045.6,0.248,750.4,01.17,0.508
2016-08-22 01:46:00,2240E-3,5C000400,-0723,0826,12176,032.3,045.6,0.247,750.5,01.17,0.508
2016-08-22 01:47:00,2213E-3,5C000400,-0723,0826,12361,032.3,045.6,0.247,750.6,01.17,0.508
2016-08-22 01:48:00,2300E-3,5C000400,-0723,0826,12035,032.3,045.6,0.247,750.6,01.17,0.508
2016-08-22 01:49:00,2252E-3,5C000400,-0723,0826,12168,032.3,045.6,0.247,750.5,01.17,0.508
2016-08-22 01:50:00,2285E-3,5C000400,-0723,0826,12158,032.4,045.6,0.246,750.5,01.17,0.508
2016-08-22 01:51:00,2198E-3,5C000400,-0723,0826,12225,032.4,045.6,0.246,750.5,01.17,0.508
2016-08-22 01:52:00,2268E-3,5C000400,-0723,0826,12200,032.4,045.6,0.247,750.5,01.17,0.508
2016-08-22 01:53:00,2111E-3,5C000400,-0723,0826,12205,032.5,045.6,0.247,750.5,01.17,0.508
2016-08-22 01:54:00,2192E-3,5C000400,-0723,0825,12404,032.5,045.6,0.246,750.5,01.17,0.508
2016-08-22 01:55:00,2270E-3,5C000400,-0723,0826,12329,032.5,045.6,0.246,750.5,01.17,0.508
2016-08-22 01:56:00,2148E-3,5C000400,-0723,0826,12169,032.5,045.6,0.246,750.5,01.17,0.508
2016-08-22 01:57:00,2222E-3,5C000400,-0723,0826,12233,032.6,045.6,0.246,750.4,01.17,0.508
2016-08-22 01:58:00,2213E-3,5C000400,-0723,0826,12240,032.6,045.6,0.246,750.5,01.17,0.508
2016-08-22 01:59:00,2285E-3,5C000400,-0723,0826,12265,032.6,045.6,0.246,750.5,01.17,0.508
2016-08-22 02:00:00,2122E-3,5C000400,-0723,0826,12408,032.6,045.6,0.246,750.5,01.17,0.508
2016-08-22 02:01:00,2225E-3,5C000400,-0723,0827,12286,032.7,045.6,0.246,750.4,01.17,0.508
2016-08-22 02:02:00,2133E-3,5C000400,-0723,0826,12207,032.7,045.6,0.246,750.5,01.17,0.508
2016-08-22 02:03:00,2272E-3,5C000400,-0723,0826,12320,032.7,045.6,0.246,750.5,01.17,0.508
2016-08-22 02:04:00,2308E-3,5C000400,-0723,0827,12189,032.8,045.6,0.246,750.5,01.17,0.508
2016-08-22 02:05:00,2325E-3,5C000400,-0723,0826,12221,032.8,045.6,0.246,750.5,01.17,0.508
2016-08-22 02:06:00,2265E-3,5C000400,-0723,0827,12273,032.8,045.6,0.246,750.5,01.17,0.508
2016-08-22 02:07:00,2163E-3,5C000400,-0723,0827,12152,032.8,045.6,0.246,750.5,01.17,0.508
2016-08-22 02:08:00,2290E-3,5C000400,-0723,0826,12280,032.8,045.6,0.245,750.5,01.17,0.508
2016-08-22 02:09:00,2305E-3,5C000400,-0723,0826,12243,032.8,045.6,0.246,750.4,01.17,0.508
2016-08-22 02:10:00,2330E-3,5C000400,-0723,0826,12288,032.8,045.6,0.246,750.5,01.17,0.508
2016-08-22 02:11:00,2281E-3,5C000400,-0723,0826,12164,032.7,045.6,0.246,750.5,01.17,0.508
2016-08-22 02:12:00,2226E-3,5C000400,-0723,0826,12233,032.6,045.6,0.246,750.5,01.17,0.508
2016-08-22 02:13:00,2220E-3,5C000400,-0723,0826,12093,032.5,045.6,0.246,750.5,01.17,0.508
2016-08-22 02:14:00,2313E-3,5C000400,-0723,0826,12065,032.4,045.6,0.245,750.5,01.17,0.508
2016-08-22 02:15:00,2273E-3,5C000400,-0723,0826,12228,032.2,045.6,0.246,750.6,01.17,0.508
2016-08-22 02:16:00,2386E-3,5C000400,-0723,0826,12303,032.1,045.6,0.246,750.6,01.17,0.508
2016-08-22 02:17:00,2308E-3,5C000400,-0723,0826,12246,031.9,045.6,0.246,750.5,01.17,0.508
2016-08-22 02:18:00,2221E-3,5C000400,-0723,0826,12294,031.8,045.6,0.246,750.6,01.17,0.508
2016-08-22 02:19:00,2439E-3,5C000400,-0723,0826,12266,031.6,045.6,0.246,750.6,01.17,0.508
2016-08-22 02:20:00,2229E-3,5C000400,-0723,0825,12131,031.6,045.6,0.247,750.6,01.17,0.508
2016-08-22 02:21:00,2192E-3,5C000400,-0723,0826,12226,031.4,045.6,0.246,750.6,01.17,0.508
2016-08-22 02:22:00,2308E-3,5C000400,-0723,0825,12203,031.3,045.6,0.247,750.6,01.17,0.508
2016-08-22 02:23:00,2367E-3,5C000400,-0723,0824,12058,031.3,045.6,0.248,750.6,01.17,0.508
2016-08-22 02:24:00,2350E-3,5C000400,-0723,0825,12191,031.2,045.5,0.248,750.7,01.17,0.508
2016-08-22 02:25:00,2203E-3,5C000400,-0723,0825,12185,031.1,045.6,0.247,750.7,01.17,0.508
2016-08-22 02:26:00,2268E-3,5C000400,-0723,0826,12305,031.0,045.6,0.248,750.6,01.17,0.508
2016-08-22 02:27:00,2333E-3,5C000400,-0723,0824,12124,031.0,045.6,0.248,750.7,01.17,0.508
2016-08-22 02:28:00,2227E-3,5C000400,-0723,0825,12237,030.9,045.5,0.248,750.6,01.17,0.508
2016-08-22 02:29:00,2301E-3,5C000400,-0723,0825,12230,030.8,045.6,0.249,750.7,01.17,0.508
2016-08-22 02:30:00,2189E-3,5C000400,-0723,0826,12351,030.7,045.6,0.248,750.6,01.17,0.508
2016-08-22 02:31:00,2268E-3,5C000400,-0723,0825,12216,030.6,045.5,0.249,750.6,01.17,0.508
2016-08-22 02:32:00,2307E-3,5C000400,-0723,0825,12279,030.6,045.5,0.249,750.7,01.17,0.508
2016-08-22 02:33:00,2246E-3,5C000400,-0723,0825,12300,030.5,045.5,0.249,750.6,01.17,0.508
2016-08-22 02:34:00,2164E-3,5C000400,-0723,0825,12156,030.5,045.5,0.250,750.7,01.17,0.508
2016-08-22 02:35:00,2221E-3,5C000400,-0723,0825,12294,030.4,045.5,0.250,750.7,01.17,0.508
2016-08-22 02:36:00,2195E-3,5C000400,-0723,0824,12203,030.4,045.5,0.250,750.7,01.17,0.508
2016-08-22 02:37:00,2239E-3,5C000400,-0723,0825,12163,030.3,045.5,0.250,750.7,01.17,0.508
2016-08-22 02:38:00,2327E-3,5C000400,-0723,0826,12385,030.3,045.5,0.250,750.7,01.17,0.508
2016-08-22 02:39:00,2274E-3,5C000400,-0723,0825,12241,030.3,045.5,0.250,750.7,01.17,0.508
2016-08-22 02:40:00,2225E-3,5C000400,-0723,0825,12112,030.2,045.5,0.250,750.7,01.17,0.508
2016-08-22 02:41:00,2195E-3,5C000400,-0723,0825,12303,030.3,045.6,0.250,750.7,01.17,0.508
2016-08-22 02:42:00,2381E-3,5C000400,-0723,0826,12293,030.2,045.5,0.250,750.7,01.17,0.508
2016-08-22 02:43:00,2181E-3,5C000400,-0723,0824,12208,030.2,045.5,0.251,750.7,01.17,0.508
2016-08-22 02:44:00,2215E-3,5C000400,-0723,0826,12257,030.2,045.5,0.251,750.7,01.17,0.508
2016-08-22 02:45:00,2162E-3,5C000400,-0723,0824,12261,030.1,045.5,0.251,750.6,01.17,0.508
2016-08-22 02:46:00,2201E-3,5C000400,-0723,0825,12263,030.1,045.5,0.251,750.7,01.17,0.508
2016-08-22 02:47:00,2074E-3,5C000400,-0723,0825,12180,030.1,045.5,0.251,750.7,01.17,0.508
2016-08-22 02:48:00,2292E-3,5C000400,-0723,0825,12177,030.0,045.5,0.250,750.7,01.17,0.508
2016-08-22 02:49:00,2252E-3,5C000400,-0723,0825,12166,030.0,045.5,0.251,750.7,01.17,0.508
2016-08-22 02:50:00,2235E-3,5C000400,-0723,0825,12259,030.0,045.5,0.251,750.7,01.17,0.508
2016-08-22 02:51:00,2350E-3,5C000400,-0723,0825,12217,029.9,045.5,0.251,750.7,01.17,0.508
2016-08-22 02:52:00,2112E-3,5C000400,-0723,0825,12304,029.9,045.5,0.251,750.7,01.17,0.508
2016-08-22 02:53:00,2166E-3,5C000400,-0723,0826,12185,029.9,045.5,0.251,750.7,01.17,0.508
2016-08-22 02:54:00,2220E-3,5C000400,-0723,0825,12262,029.8,045.5,0.251,750.7,01.17,0.508
2016-08-22 02:55:00,2120E-3,5C000400,-0723,0825,12238,029.8,045.5,0.251,750.7,01.17,0.508
2016-08-22 02:56:00,2217E-3,5C000400,-0723,0825,12241,029.8,045.5,0.251,750.7,01.17,0.508
2016-08-22 02:57:00,2263E-3,5C000400,-0723,0825,12242,029.7,045.5,0.251,750.7,01.17,0.508
2016-08-22 02:58:00,2193E-3,5C000400,-0723,0826,12284,029.7,045.5,0.251,750.7,01.17,0.508
2016-08-22 02:59:00,2217E-3,5C000400,-0723,0825,12182,029.8,045.5,0.251,750.7,01.17,0.508
2016-08-22 03:00:00,2321E-3,5C000400,-0723,0825,12223,029.8,045.5,0.251,750.7,01.17,0.508
2016-08-22 03:01:00,2169E-3,5C000400,-0723,0825,12262,029.8,045.5,0.252,750.7,01.17,0.508
2016-08-22 03:02:00,2275E-3,5C000400,-0723,0825,12318,029.7,045.5,0.251,750.7,01.17,0.508
2016-08-22 03:03:00,2339E-3,5C000400,-0723,0826,12294,029.6,045.5,0.252,750.7,01.17,0.508
2016-08-22 03:04:00,2304E-3,5C000400,-0723,0825,12232,029.6,045.5,0.251,750.7,01.17,0.508
2016-08-22 03:05:00,2278E-3,5C000400,-0723,0825,12267,029.6,045.5,0.252,750.7,01.17,0.508
2016-08-22 03:06:00,2211E-3,5C000400,-0723,0825,12241,029.6,045.5,0.252,750.7,01.17,0.508
2016-08-22 03:07:00,2234E-3,5C000400,-0723,0825,12173,029.6,045.5,0.252,750.7,01.17,0.508
2016-08-22 03:08:00,2286E-3,5C000400,-0723,0825,12302,029.6,045.5,0.252,750.7,01.17,0.508
2016-08-22 03:09:00,2197E-3,5C000400,-0723,0824,12142,029.5,045.5,0.251,750.7,01.17,0.508
2016-08-22 03:10:00,2195E-3,5C000400,-0723,0825,12218,029.5,045.5,0.252,750.7,01.17,0.508
2016-08-22 03:11:00,2309E-3,5C000400,-0723,0826,12309,029.5,045.5,0.252,750.7,01.17,0.508
2016-08-22 03:12:00,2291E-3,5C000400,-0723,0825,12198,029.5,045.5,0.252,750.7,01.17,0.508
2016-08-22 03:13:00,2184E-3,5C000400,-0723,0825,12165,029.5,045.5,0.252,750.7,01.17,0.508
2016-08-22 03:14:00,2147E-3,5C000400,-0723,0825,12144,029.5,045.5,0.251,750.7,01.17,0.508
2016-08-22 03:15:00,2375E-3,5C000400,-0723,0825,12091,029.5,045.5,0.252,750.7,01.17,0.508
2016-08-22 03:16:00,2235E-3,5C000400,-0723,0826,12326,029.5,045.5,0.252,750.7,01.17,0.508
2016-08-22 03:17:00,2301E-3,5C000400,-0723,0825,12152,029.6,045.5,0.252,750.7,01.17,0.508
2016-08-22 03:18:00,2300E-3,5C000400,-0723,0825,12247,029.6,045.5,0.252,750.7,01.17,0.508
2016-08-22 03:19:00,2336E-3,5C000400,-0723,0824,12249,029.6,045.5,0.252,750.7,01.17,0.508
2016-08-22 03:20:00,2136E-3,5C000400,-0723,0825,12121,029.6,045.5,0.252,750.7,01.17,0.508
2016-08-22 03:21:00,2292E-3,5C000400,-0723,0825,12344,029.6,045.5,0.252,750.7,01.17,0.508
2016-08-22 03:22:00,2171E-3,5C000400,-0723,0824,12223,029.5,045.5,0.252,750.8,01.17,0.508
2016-08-22 03:23:00,2339E-3,5C000400,-0723,0825,12178,029.5,045.5,0.252,750.7,01.17,0.508
2016-08-22 03:24:00,2061E-3,5C000400,-0723,0825,12267,029.4,045.5,0.252,750.8,01.17,0.508
2016-08-22 03:25:00,2300E-3,5C000400,-0723,0824,12350,029.5,045.5,0.252,750.8,01.17,0.508
2016-08-22 03:26:00,2236E-3,5C000400,-0723,0825,12379,029.4,045.5,0.252,750.8,01.17,0.508
2016-08-22 03:27:00,2230E-3,5C000400,-0723,0826,12255,029.5,045.5,0.252,750.8,01.17,0.508
2016-08-22 03:28:00,2254E-3,5C000400,-0723,0825,12220,029.5,045.5,0.252,750.8,01.17,0.508
2016-08-22 03:29:00,2166E-3,5C000400,-0723,0825,12300,029.5,045.5,0.252,750.8,01.17,0.508
2016-08-22 03:30:00,2191E-3,5C000400,-0723,0825,12291,029.4,045.5,0.252,750.9,01.17,0.508
2016-08-22 03:31:00,2167E-3,5C000400,-0723,0825,12292,029.4,045.5,0.252,750.9,01.17,0.508
2016-08-22 03:32:00,2122E-3,5C000400,-0723,0825,12245,029.4,045.5,0.252,750.9,01.17,0.508
2016-08-22 03:33:00,2123E-3,5C000400,-0723,0824,12121,029.5,045.5,0.252,750.8,01.17,0.508
2016-08-22 03:34:00,2198E-3,5C000400,-0723,0826,12330,029.4,045.5,0.252,750.9,01.17,0.508
2016-08-22 03:35:00,2337E-3,5C000400,-0723,0827,12203,029.4,045.5,0.252,750.8,01.17,0.508
2016-08-22 03:36:00,2112E-3,5C000400,-0723,0825,12276,029.4,045.5,0.252,750.9,01.17,0.508
2016-08-22 03:37:00,2138E-3,5C000400,-0723,0825,12294,029.3,045.5,0.252,750.9,01.17,0.508
2016-08-22 03:38:00,2250E-3,5C000400,-0723,0825,12146,029.3,045.5,0.252,750.9,01.17,0.508
2016-08-22 03:39:00,2083E-3,5C000400,-0723,0825,12319,029.3,045.5,0.252,750.9,01.17,0.508
2016-08-22 03:40:00,2345E-3,5C000400,-0723,0825,12307,029.3,045.5,0.252,750.9,01.17,0.508
2016-08-22 03:41:00,2278E-3,5C000400,-0723,0825,12261,029.3,045.5,0.253,750.9,01.17,0.508
2016-08-22 03:42:00,2136E-3,5C000400,-0723,0824,12277,029.3,045.5,0.252,750.9,01.17,0.508
2016-08-22 03:43:00,2257E-3,5C000400,-0723,0824,12225,029.3,045.5,0.253,750.9,01.17,0.508
2016-08-22 03:44:00,2280E-3,5C000400,-0723,0825,12251,029.4,045.5,0.252,750.8,01.17,0.508
2016-08-22 03:45:00,2227E-3,5C000400,-0723,0825,12404,029.4,045.5,0.253,750.8,01.17,0.508
2016-08-22 03:46:00,2052E-3,5C000400,-0723,0824,12231,029.4,045.5,0.252,750.9,01.17,0.508
2016-08-22 03:47:00,2113E-3,5C000400,-0723,0824,12223,029.3,045.5,0.252,750.9,01.17,0.508
2016-08-22 03:48:00,2185E-3,5C000400,-0723,0825,12332,029.4,045.5,0.252,750.9,01.17,0.508
2016-08-22 03:49:00,2301E-3,5C000400,-0723,0825,12310,029.3,045.5,0.252,750.9,01.17,0.508
2016-08-22 03:50:00,2159E-3,5C000400,-0723,0825,12285,029.3,045.5,0.252,751.0,01.17,0.508
2016-08-22 03:51:00,2165E-3,5C000400,-0723,0825,12248,029.3,045.5,0.252,751.0,01.17,0.508
2016-08-22 03:52:00,2226E-3,5C000400,-0723,0824,12306,029.3,045.5,0.253,751.0,01.17,0.508
2016-08-22 03:53:00,2213E-3,5C000400,-0723,0824,12143,029.3,045.5,0.252,750.9,01.17,0.508
2016-08-22 03:54:00,2392E-3,5C000400,-0723,0825,12212,029.2,045.5,0.253,751.0,01.17,0.508
2016-08-22 03:55:00,2361E-3,5C000400,-0723,0825,12217,029.3,045.5,0.252,751.0,01.17,0.508
2016-08-22 03:56:00,2149E-3,5C000400,-0723,0825,12062,029.2,045.5,0.253,751.0,01.17,0.508
2016-08-22 03:57:00,2237E-3,5C000400,-0723,0824,12296,029.2,045.5,0.252,751.0,01.17,0.508
2016-08-22 03:58:00,2173E-3,5C000400,-0723,0825,12160,029.2,045.5,0.253,751.0,01.17,0.508
2016-08-22 03:59:00,2179E-3,5C000400,-0723,0824,12264,029.2,045.5,0.252,751.0,01.17,0.508
2016-08-22 04:00:00,2421E-3,5C000400,-0723,0825,12260,029.2,045.5,0.252,751.0,01.17,0.508
2016-08-22 04:01:00,2258E-3,5C000400,-0723,0825,12220,029.2,045.5,0.253,751.0,01.17,0.508
2016-08-22 04:02:00,2166E-3,5C000400,-0723,0825,12295,029.2,045.5,0.253,751.0,01.17,0.508
2016-08-22 04:03:00,2306E-3,5C000400,-0723,0825,12164,029.2,045.5,0.253,751.0,01.17,0.508
2016-08-22 04:04:00,2116E-3,5C000400,-0723,0824,12256,029.2,045.5,0.252,751.0,01.17,0.508
2016-08-22 04:05:00,2213E-3,5C000400,-0723,0825,12292,029.2,045.5,0.253,751.0,01.17,0.508
2016-08-22 04:06:00,2270E-3,5C000400,-0723,0826,12306,029.2,045.5,0.252,751.0,01.17,0.508
2016-08-22 04:07:00,2104E-3,5C000400,-0723,0826,12278,029.2,045.5,0.253,751.0,01.17,0.508
2016-08-22 04:08:00,2253E-3,5C000400,-0723,0824,12318,029.1,045.5,0.252,751.0,01.17,0.508
2016-08-22 04:09:00,2213E-3,5C000400,-0723,0826,12253,029.1,045.5,0.253,751.0,01.17,0.508
2016-08-22 04:10:00,2252E-3,5C000400,-0723,0825,12322,029.1,045.5,0.252,751.0,01.17,0.508
2016-08-22 04:11:00,2184E-3,5C000400,-0723,0824,12340,029.1,045.5,0.253,751.0,01.17,0.508
2016-08-22 04:12:00,2229E-3,5C000400,-0723,0825,12319,029.1,045.5,0.253,751.0,01.17,0.508
2016-08-22 04:13:00,2326E-3,5C000400,-0723,0825,12176,029.1,045.5,0.253,751.0,01.17,0.508
2016-08-22 04:14:00,2084E-3,5C000400,-0723,0824,12204,029.1,045.5,0.253,751.0,01.17,0.508
2016-08-22 04:15:00,2234E-3,5C000400,-0723,0825,12298,029.1,045.5,0.253,751.0,01.17,0.508
2016-08-22 04:16:00,2254E-3,5C000400,-0723,0825,12231,029.1,045.5,0.253,751.0,01.17,0.508
2016-08-22 04:17:00,2193E-3,5C000400,-0723,0825,12233,029.0,045.5,0.253,751.0,01.17,0.508
2016-08-22 04:18:00,2182E-3,5C000400,-0723,0825,12066,029.0,045.5,0.253,751.0,01.17,0.508
2016-08-22 04:19:00,2105E-3,5C000400,-0723,0825,12316,029.0,045.5,0.253,751.0,01.17,0.508
2016-08-22 04:20:00,2127E-3,5C000400,-0723,0825,12223,029.0,045.5,0.253,751.0,01.17,0.508